Abilene Dyess, TX

6:13 AM CDT on July 26, 2017 (GMT -0500)
Dyess Air Force Base

Weather History for KDYS - May, 2013

Change the Weather History Date:

Sunday, May 26, 2013

  Actual Average Record
Temperature  
Mean Temperature 82 °F -  
Max Temperature 93 °F 87 °F 97 °F (2017)
Min Temperature 71 °F 65 °F 57 °F (2011)
Cooling Degree Days 17    
Growing Degree Days 32 (Base 50)    
Moisture  
Dew Point 63 °F    
Average Humidity 60    
Maximum Humidity 86    
Minimum Humidity 30    
Precipitation  
Precipitation 0.00 in - - ()
Sea Level Pressure  
Sea Level Pressure 29.86 in    
Wind  
Wind Speed 16 mph (SSE)    
Max Wind Speed 25 mph    
Max Gust Speed 33 mph    
Visibility 10 miles    
Events      
Averages and records for this station are not official NWS values.
T = Trace of Precipitation, MM = Missing Value Source: NWS Daily Summary

Daily Weather History Graph

Daily Weather History Graph

Search for Another Location

Airport or City:

Trip Planner

Search our weather history database for the weather conditions in past years. The results will help you decide how hot, cold, wet, or windy it might be!

Date:

Astronomy

May. 26, 2013 Rise Set
Actual Time 6:35 AM CDT 8:38 PM CDT
Civil Twilight 6:07 AM CDT 9:05 PM CDT
Nautical Twilight 5:33 AM CDT 9:39 PM CDT
Astronomical Twilight 4:57 AM CDT 10:15 PM CDT
Moon 10:28 PM CDT 8:05 AM CDT
Length of Visible Light 14h 58m
Length of Day
14h 03m
Waning Gibbous, 96% of the Moon is Illuminated
May 26
Waning Gibbous
May 31
Last Quarter
Jun 8
New
Jun 16
First Quarter
Jun 23
Full

Hourly Weather History & Observations

Time (CDT) Temp. Heat Index Dew Point Humidity Pressure Visibility Wind Dir Wind Speed Gust Speed Precip Events Conditions
12:58 AM 72.9 °F - 65.5 °F 78% 29.94 in 10.0 mi South 12.7 mph - N/A   Clear
1:58 AM 72.7 °F - 65.3 °F 78% 29.91 in 10.0 mi South 17.3 mph - N/A   Mostly Cloudy
2:58 AM 72.1 °F - 65.5 °F 79% 29.88 in 10.0 mi SSE 18.4 mph - N/A   Partly Cloudy
3:58 AM 71.4 °F - 66.0 °F 83% 29.83 in 10.0 mi South 21.9 mph - N/A   Clear
4:58 AM 71.4 °F - 66.4 °F 84% 29.79 in 10.0 mi SSE 24.2 mph 33.4 mph N/A   Clear
5:58 AM 71.4 °F - 66.7 °F 85% 29.83 in 10.0 mi SSE 18.4 mph 27.6 mph N/A   Partly Cloudy
6:23 AM 71.6 °F - 66.2 °F 83% 29.98 in 10.0 mi SSE 15.0 mph - N/A   Mostly Cloudy
6:38 AM 71.6 °F - 66.2 °F 83% 29.98 in 10.0 mi SSE 16.1 mph - N/A   Scattered Clouds
6:58 AM 71.2 °F - 66.9 °F 86% 29.84 in 10.0 mi SE 10.4 mph - N/A   Partly Cloudy
7:55 AM 72.0 °F - 66.9 °F 84% 29.93 in 10.0 mi South 11.5 mph - N/A   Partly Cloudy
7:58 AM 72.0 °F - 66.9 °F 84% 29.87 in 10.0 mi SSE 15.0 mph 19.6 mph N/A   Partly Cloudy
8:55 AM 76.5 °F - 66.9 °F 72% 29.94 in 10.0 mi SSE 16.1 mph - N/A   Mostly Cloudy
8:58 AM 76.5 °F - 66.9 °F 72% 29.87 in 10.0 mi SSE 17.3 mph - N/A   Clear
9:58 AM 78.3 °F - 65.3 °F 64% 29.90 in 10.0 mi South 17.3 mph 23.0 mph N/A   Partly Cloudy
10:41 AM 82.4 °F 83.9 °F 64.4 °F 54% 30.02 in 10.0 mi SSW 12.7 mph - N/A   Partly Cloudy
10:58 AM 82.8 °F 84.3 °F 64.6 °F 54% 29.89 in 10.0 mi South 13.8 mph - N/A   Clear
11:58 AM 86.5 °F 86.8 °F 61.3 °F 43% 29.89 in 10.0 mi SSE 10.4 mph 19.6 mph N/A   Clear
12:58 PM 88.9 °F 88.3 °F 59.2 °F 37% 29.86 in 10.0 mi South 10.4 mph 21.9 mph N/A   Scattered Clouds
1:14 PM 89.6 °F 88.1 °F 57.2 °F 33% 30.00 in 10.0 mi SSW 15.0 mph 24.2 mph N/A   Mostly Cloudy
1:58 PM 91.4 °F 89.6 °F 56.1 °F 30% 29.84 in 10.0 mi South 15.0 mph 23.0 mph N/A   Scattered Clouds
2:58 PM 91.6 °F 90.1 °F 56.8 °F 31% 29.81 in 10.0 mi South 16.1 mph 24.2 mph N/A   Partly Cloudy
3:58 PM 93.0 °F 92.3 °F 59.4 °F 32% 29.80 in 10.0 mi South 16.1 mph 26.5 mph N/A   Clear
4:58 PM 92.5 °F 92.2 °F 60.1 °F 34% 29.78 in 10.0 mi South 18.4 mph 29.9 mph N/A   Clear
5:58 PM 91.9 °F 91.5 °F 59.9 °F 34% 29.76 in 10.0 mi South 24.2 mph 29.9 mph N/A   Clear
6:58 PM 89.4 °F 88.7 °F 59.4 °F 36% 29.77 in 10.0 mi SSE 25.3 mph 33.4 mph N/A   Clear
7:58 PM 85.6 °F 85.2 °F 59.2 °F 41% 29.77 in 10.0 mi South 23.0 mph 31.1 mph N/A   Clear
8:58 PM 82.6 °F 83.1 °F 60.8 °F 48% 29.79 in 10.0 mi SSE 13.8 mph - N/A   Clear
9:58 PM 80.8 °F 81.8 °F 61.9 °F 52% 29.79 in 10.0 mi SSE 16.1 mph - N/A   Clear
10:58 PM 79.9 °F - 63.1 °F 56% 29.81 in 10.0 mi SSE 13.8 mph - N/A   Clear
11:58 PM 78.1 °F - 66.0 °F 66% 29.80 in 10.0 mi SSE 23.0 mph 31.1 mph N/A   Clear